Ozark, AL

8:51 AM CST on December 15, 2017 (GMT -0600)
Cairns Army Air Field

Weather History for KOZR - October, 2012

Change the Weather History Date:

Thursday, October 4, 2012

  Actual Average Record
Temperature  
Mean Temperature 72 °F -  
Max Temperature 82 °F 77 °F 93 °F (1998)
Min Temperature 62 °F 59 °F 47 °F (2010)
Cooling Degree Days 7    
Growing Degree Days 22 (Base 50)    
Moisture  
Dew Point 64 °F    
Average Humidity 88    
Maximum Humidity 100    
Minimum Humidity 55    
Precipitation  
Precipitation 0.00 in - - ()
Sea Level Pressure  
Sea Level Pressure 30.20 in    
Wind  
Wind Speed 5 mph (NNE)    
Max Wind Speed 8 mph    
Max Gust Speed -    
Visibility 5 miles    
Events Fog    
Averages and records for this station are not official NWS values.
T = Trace of Precipitation, MM = Missing Value Source: NWS Daily Summary

Daily Weather History Graph

Daily Weather History Graph

Search for Another Location

Airport or City:

Trip Planner

Search our weather history database for the weather conditions in past years. The results will help you decide how hot, cold, wet, or windy it might be!

Date:

Astronomy

Oct. 04, 2012 Rise Set
Actual Time 6:38 AM CDT 6:23 PM CDT
Civil Twilight 6:14 AM CDT 6:47 PM CDT
Nautical Twilight 5:46 AM CDT 7:15 PM CDT
Astronomical Twilight 5:18 AM CDT 7:43 PM CDT
Moon 9:16 PM CDT (10/4) 10:38 AM CDT (10/4)
Length of Visible Light 12h 33m
Length of Day
11h 44m
Waning Gibbous, 82% of the Moon is Illuminated
Oct 4
Waning Gibbous
Oct 8
Last Quarter
Oct 15
New
Oct 21
First Quarter
Oct 29
Full

Hourly Weather History & Observations

Time (CDT) Temp. Heat Index Dew Point Humidity Pressure Visibility Wind Dir Wind Speed Gust Speed Precip Events Conditions
12:40 AM 64.4 °F - 62.6 °F 94% 30.16 in 10.0 mi NE 5.8 mph - N/A   Mostly Cloudy
12:55 AM 64.2 °F - 62.1 °F 93% 30.16 in 10.0 mi NE 5.8 mph - N/A   Mostly Cloudy
1:01 AM 64.4 °F - 62.6 °F 94% 30.16 in 10.0 mi NNE 6.9 mph - N/A   Scattered Clouds
1:47 AM 62.6 °F - 62.6 °F 100% 30.17 in 10.0 mi NE 5.8 mph - N/A   Partly Cloudy
1:55 AM 63.5 °F - 62.1 °F 95% 30.17 in 10.0 mi NNE 5.8 mph - N/A   Partly Cloudy
2:28 AM 62.6 °F - 62.6 °F 100% 30.17 in 10.0 mi NE 4.6 mph - N/A   Partly Cloudy
2:38 AM 62.6 °F - 62.6 °F 100% 30.17 in 10.0 mi NE 5.8 mph - N/A   Mostly Cloudy
2:55 AM 63.3 °F - 61.9 °F 95% 30.17 in 10.0 mi NNE 4.6 mph - N/A   Overcast
3:19 AM 62.6 °F - 62.6 °F 100% 30.17 in 10.0 mi NE 5.8 mph - N/A   Overcast
3:26 AM 64.4 °F - 62.6 °F 94% 30.17 in 2.5 mi NE 5.8 mph - N/A   Overcast
3:27 AM 64.4 °F - 62.6 °F 94% 30.17 in 1.8 mi NE 5.8 mph - N/A   Overcast
3:29 AM 64.4 °F - 62.6 °F 94% 30.17 in 1.2 mi NE 4.6 mph - N/A   Overcast
3:30 AM 64.4 °F - 62.6 °F 94% 30.17 in 1.0 mi NE 4.6 mph - N/A   Mist
3:32 AM 64.4 °F - 62.6 °F 94% 30.17 in 0.8 mi ENE 3.5 mph - N/A   Mist
3:34 AM 64.4 °F - 62.6 °F 94% 30.17 in 0.8 mi NE 3.5 mph - N/A   Mist
3:44 AM 64.4 °F - 62.6 °F 94% 30.18 in 0.8 mi NNE 3.5 mph - N/A   Mist
3:46 AM 64.4 °F - 62.6 °F 94% 30.18 in 0.8 mi NNE 4.6 mph - N/A   Mist
3:48 AM 64.4 °F - 62.6 °F 94% 30.18 in 0.5 mi NNE 4.6 mph - N/A Fog Fog
3:51 AM 64.4 °F - 64.4 °F 100% 30.18 in 0.5 mi NNE 4.6 mph - N/A Fog Fog
3:52 AM 64.4 °F - 64.4 °F 100% 30.18 in 0.5 mi NNE 5.8 mph - N/A Fog Fog
3:54 AM 64.4 °F - 64.4 °F 100% 30.18 in 0.5 mi NNE 4.6 mph - N/A Fog Fog
3:55 AM 64.0 °F - 63.5 °F 98% 30.18 in 0.2 mi NNE 4.6 mph - N/A Fog Fog
4:17 AM 64.4 °F - 62.6 °F 94% 30.18 in 0.5 mi NNE 4.6 mph - N/A Fog Fog
4:18 AM 64.4 °F - 62.6 °F 94% 30.18 in 0.5 mi NNE 4.6 mph - N/A Fog Fog
4:24 AM 64.4 °F - 62.6 °F 94% 30.19 in 0.5 mi NNE 4.6 mph - N/A Fog Fog
4:26 AM 64.4 °F - 62.6 °F 94% 30.19 in 0.8 mi NNE 4.6 mph - N/A   Mist
4:34 AM 64.4 °F - 62.6 °F 94% 30.19 in 0.5 mi NNE 4.6 mph - N/A Fog Fog
4:37 AM 64.4 °F - 62.6 °F 94% 30.19 in 0.5 mi NNE 4.6 mph - N/A Fog Fog
4:38 AM 64.4 °F - 62.6 °F 94% 30.19 in 0.5 mi NE 4.6 mph - N/A Fog Fog
4:39 AM 64.4 °F - 62.6 °F 94% 30.19 in 0.5 mi NE 5.8 mph - N/A Fog Fog
4:42 AM 64.4 °F - 62.6 °F 94% 30.18 in 0.5 mi NNE 4.6 mph - N/A Fog Fog
4:48 AM 64.4 °F - 62.6 °F 94% 30.19 in 0.5 mi NE 3.5 mph - N/A Fog Fog
4:51 AM 64.4 °F - 62.6 °F 94% 30.19 in 0.8 mi NNE 3.5 mph - N/A   Mist
4:55 AM 63.9 °F - 63.1 °F 97% 30.19 in 0.8 mi NE 4.6 mph - N/A   Mist
4:58 AM 64.4 °F - 62.6 °F 94% 30.20 in 0.5 mi NE 4.6 mph - N/A Fog Fog
5:00 AM 64.4 °F - 62.6 °F 94% 30.20 in 0.5 mi NE 3.5 mph - N/A Fog Fog
5:14 AM 64.4 °F - 62.6 °F 94% 30.20 in 0.5 mi NNE 4.6 mph - N/A Fog Fog
5:29 AM 64.4 °F - 62.6 °F 94% 30.20 in 0.2 mi NNE 4.6 mph - N/A Fog Fog
5:33 AM 64.4 °F - 62.6 °F 94% 30.21 in 0.5 mi NNE 4.6 mph - N/A Fog Fog
5:55 AM 63.7 °F - 63.5 °F 99% 30.21 in 0.5 mi NE 4.6 mph - N/A Fog Fog
6:33 AM 64.4 °F - 62.6 °F 94% 30.21 in 0.2 mi NNE 5.8 mph - N/A Fog Fog
6:38 AM 64.4 °F - 62.6 °F 94% 30.21 in 0.2 mi North 3.5 mph - N/A Fog Fog
6:55 AM 63.3 °F - 63.1 °F 99% 30.22 in 0.2 mi NNE 3.5 mph - N/A Fog Fog
7:15 AM 64.4 °F - 62.6 °F 94% 30.23 in 0.2 mi NNE 3.5 mph - N/A Fog Fog
7:31 AM 64.4 °F - 62.6 °F 94% 30.23 in 0.2 mi North 4.6 mph - N/A Fog Fog
7:32 AM 64.4 °F - 62.6 °F 94% 30.23 in 0.5 mi North 4.6 mph - N/A Fog Fog
7:33 AM 64.4 °F - 62.6 °F 94% 30.23 in 0.5 mi North 4.6 mph - N/A Fog Fog
7:35 AM 64.4 °F - 62.6 °F 94% 30.23 in 0.5 mi North 4.6 mph - N/A Fog Fog
7:36 AM 64.4 °F - 62.6 °F 94% 30.23 in 0.5 mi North 4.6 mph - N/A Fog Fog
7:38 AM 64.4 °F - 62.6 °F 94% 30.23 in 0.8 mi North 5.8 mph - N/A   Mist
7:41 AM 64.4 °F - 64.4 °F 100% 30.23 in 1.0 mi North 4.6 mph - N/A   Mist
7:43 AM 64.4 °F - 64.4 °F 100% 30.23 in 1.2 mi NNW 5.8 mph - N/A   Overcast
7:46 AM 64.4 °F - 64.4 °F 100% 30.23 in 1.5 mi North 5.8 mph - N/A   Overcast
7:50 AM 64.4 °F - 64.4 °F 100% 30.23 in 2.0 mi North 4.6 mph - N/A   Overcast
7:53 AM 64.4 °F - 64.4 °F 100% 30.23 in 3.0 mi North 5.8 mph - N/A   Overcast
7:55 AM 64.2 °F - 64.0 °F 99% 30.23 in 4.0 mi North 4.6 mph - N/A   Overcast
8:10 AM 64.4 °F - 64.4 °F 100% 30.23 in 10.0 mi NNE 4.6 mph - N/A   Mostly Cloudy
8:15 AM 64.4 °F - 64.4 °F 100% 30.23 in 10.0 mi NNE 3.5 mph - N/A   Scattered Clouds
8:46 AM 66.2 °F - 66.2 °F 100% 30.25 in 10.0 mi NE 6.9 mph - N/A   Mostly Cloudy
8:55 AM 66.4 °F - 65.3 °F 96% 30.25 in 10.0 mi NE 4.6 mph - N/A   Mostly Cloudy
9:13 AM 66.2 °F - 66.2 °F 100% 30.25 in 7.0 mi ENE 5.8 mph - N/A   Overcast
9:35 AM 68.0 °F - 66.2 °F 94% 30.24 in 10.0 mi NE 4.6 mph - N/A   Scattered Clouds
9:55 AM 73.0 °F - 67.1 °F 82% 30.23 in 10.0 mi NE 6.9 mph - N/A   Clear
10:55 AM 77.0 °F - 67.3 °F 72% 30.23 in 10.0 mi NNE 8.1 mph - N/A   Scattered Clouds
11:49 AM 78.8 °F - 68.0 °F 69% 30.22 in 10.0 mi NNE 6.9 mph - N/A   Mostly Cloudy
11:55 AM 79.3 °F - 66.9 °F 66% 30.22 in 10.0 mi North 5.8 mph - N/A   Mostly Cloudy
11:56 AM 78.8 °F - 66.2 °F 65% 30.22 in 10.0 mi North 4.6 mph - N/A   Scattered Clouds
11:59 AM 78.8 °F - 66.2 °F 65% 30.22 in 10.0 mi North 8.1 mph - N/A   Mostly Cloudy
12:10 PM 78.8 °F - 66.2 °F 65% 30.22 in 10.0 mi Variable 6.9 mph - N/A   Scattered Clouds
12:16 PM 80.6 °F 82.7 °F 66.2 °F 61% 30.22 in 10.0 mi NE 6.9 mph - N/A   Mostly Cloudy
12:18 PM 80.6 °F 82.7 °F 66.2 °F 61% 30.22 in 10.0 mi NNE 6.9 mph - N/A   Scattered Clouds
12:24 PM 80.6 °F 82.7 °F 66.2 °F 61% 30.22 in 10.0 mi North 5.8 mph - N/A   Mostly Cloudy
12:30 PM 80.6 °F 82.7 °F 66.2 °F 61% 30.22 in 10.0 mi Variable 6.9 mph - N/A   Scattered Clouds
12:36 PM 80.6 °F 82.7 °F 66.2 °F 61% 30.22 in 10.0 mi NNE 8.1 mph - N/A   Mostly Cloudy
12:41 PM 78.8 °F - 66.2 °F 65% 30.21 in 10.0 mi Variable 4.6 mph - N/A   Mostly Cloudy
12:55 PM 80.8 °F 82.9 °F 66.4 °F 61% 30.20 in 10.0 mi Variable 4.6 mph - N/A   Scattered Clouds
1:55 PM 81.5 °F 83.4 °F 65.5 °F 58% 30.18 in 10.0 mi NE 8.1 mph - N/A   Partly Cloudy
2:55 PM 81.7 °F 83.3 °F 64.6 °F 56% 30.17 in 10.0 mi NNE 6.9 mph - N/A   Clear
3:55 PM 82.4 °F 84.1 °F 64.9 °F 55% 30.16 in 10.0 mi North 5.8 mph - N/A   Clear
4:55 PM 80.6 °F 82.2 °F 63.9 °F 57% 30.15 in 10.0 mi North 8.1 mph - N/A   Clear
5:55 PM 77.7 °F - 65.1 °F 65% 30.15 in 10.0 mi North 5.8 mph - N/A   Clear
6:55 PM 73.8 °F - 65.1 °F 74% 30.15 in 10.0 mi NNE 5.8 mph - N/A   Clear
7:55 PM 71.4 °F - 63.9 °F 77% 30.17 in 10.0 mi NE 4.6 mph - N/A   Clear
8:55 PM 70.9 °F - 64.4 °F 80% 30.18 in 10.0 mi Calm Calm - N/A   Clear
9:55 PM 68.4 °F - 64.9 °F 89% 30.19 in 10.0 mi Calm Calm - N/A   Partly Cloudy
10:55 PM 66.9 °F - 63.5 °F 89% 30.19 in 10.0 mi NE 4.6 mph - N/A   Clear
11:55 PM 66.2 °F - 63.9 °F 92% 30.16 in 10.0 mi NE 4.6 mph - N/A   Clear